Tracking 20093 objects as of 15-Dec-2019
HD Live streaming from Space Station
objects crossing your sky now

FENGYUN 1C DEB

Track FENGYUN 1C DEB now!
10-day predictions


NORAD ID: 32218
Int'l Code: 1999-025CVQ
Perigee: 711.4 km
Apogee: 832.8 km
Inclination: 98.6 °
Period: 100.1 minutes
Semi major axis: 7143 km
RCS: 0.0091 m2 (small)
Launch date: May 10, 1999
Source: People's Republic of China (PRC)
Launch site: Taiyaun Space Center, China (TSC)

Note: This is SATELLITE DEBRIS
aabbcc
Your satellite tracking list
Your tracking list is empty




NASA's NSSDC Master Catalog

Two Line Element Set (TLE):
1 32218U 99025CVQ 19348.50922834  .00000304  00000-0  11085-3 0  9994
2 32218  98.6489  94.7073 0084922 133.4637 288.0090 14.38044092648004
Source of the keplerian elements: AFSPC